Beaumont / Port Arthur, TX

8:49 PM CDT on September 23, 2017 (GMT -0500)
Beaumont Municipal

Weather History for KBMT - March, 2013

Change the Weather History Date:

Monday, March 11, 2013

  Actual Average (KBPT) Record (KBPT)
Temperature  
Mean Temperature 50 °F -  
Max Temperature 60 °F 71 °F 85 °F (1906)
Min Temperature 41 °F 53 °F 29 °F (1948)
Degree Days  
Heating Degree Days 14    
Moisture  
Dew Point 26 °F    
Average Humidity 40    
Maximum Humidity 70    
Minimum Humidity 19    
Precipitation  
Precipitation 0.00 in - - ()
Sea Level Pressure  
Sea Level Pressure 30.05 in    
Wind  
Wind Speed 10 mph (NW)    
Max Wind Speed 18 mph    
Max Gust Speed 25 mph    
Visibility 10 miles    
Events      
Averages and records for this station are not official NWS values.
T = Trace of Precipitation, MM = Missing Value Source: NWS Daily Summary

Daily Weather History Graph

Daily Weather History Graph

Search for Another Location

Airport or City:

Trip Planner

Search our weather history database for the weather conditions in past years. The results will help you decide how hot, cold, wet, or windy it might be!

Date:

Astronomy

Mar. 11, 2013 Rise Set
Actual Time 7:31 AM CDT 7:22 PM CDT
Civil Twilight 7:07 AM CDT 7:46 PM CDT
Nautical Twilight 6:39 AM CDT 8:14 PM CDT
Astronomical Twilight 6:11 AM CDT 8:42 PM CDT
Moon 7:07 AM CDT (3/11) 7:31 PM CDT (3/11)
Length of Visible Light 12h 39m
Length of Day
11h 51m
Waning Crescent, 0% of the Moon is Illuminated
Mar 11
Waning Crescent
Mar 11
New
Mar 19
First Quarter
Mar 27
Full
Apr 2
Last Quarter

Hourly Weather History & Observations

Time (CDT) Temp. Windchill Dew Point Humidity Pressure Visibility Wind Dir Wind Speed Gust Speed Precip Events Conditions
12:15 AM 51.8 °F - 33.8 °F 50% 30.04 in 10.0 mi NNW 13.8 mph 18.4 mph N/A   Overcast
12:35 AM 51.8 °F - 33.8 °F 50% 30.05 in 10.0 mi NNW 12.7 mph 18.4 mph N/A   Overcast
1:35 AM 48.2 °F - 32.0 °F 54% 30.05 in 10.0 mi NNW 12.7 mph 25.3 mph N/A   Scattered Clouds
2:15 AM 46.4 °F 42.4 °F 32.0 °F 57% 30.05 in 10.0 mi NNW 8.1 mph - N/A   Scattered Clouds
2:35 AM 46.4 °F 41.9 °F 33.8 °F 62% 30.03 in 10.0 mi North 9.2 mph - N/A   Scattered Clouds
2:55 AM 46.4 °F 40.4 °F 30.2 °F 53% 30.04 in 10.0 mi NNW 13.8 mph 20.7 mph N/A   Scattered Clouds
3:15 AM 46.4 °F 41.1 °F 30.2 °F 53% 30.03 in 10.0 mi North 11.5 mph 18.4 mph N/A   Scattered Clouds
3:55 AM 46.4 °F 43.5 °F 28.4 °F 50% 30.02 in 10.0 mi North 5.8 mph - N/A   Mostly Cloudy
4:15 AM 44.6 °F 40.7 °F 28.4 °F 53% 30.02 in 10.0 mi North 6.9 mph - N/A   Clear
4:55 AM 46.4 °F - 30.2 °F 53% 30.05 in 10.0 mi Calm Calm - N/A   Overcast
5:55 AM 42.8 °F 40.1 °F 32.0 °F 66% 30.06 in 10.0 mi NW 4.6 mph - N/A   Scattered Clouds
7:15 AM 41.0 °F 39.0 °F 32.0 °F 70% 30.06 in 10.0 mi WNW 3.5 mph - N/A   Clear
8:15 AM 42.8 °F 40.1 °F 32.0 °F 66% 30.11 in 10.0 mi West 4.6 mph - N/A   Clear
9:15 AM 48.2 °F - 28.4 °F 46% 30.12 in 10.0 mi NW 10.4 mph - N/A   Clear
9:55 AM 50.0 °F - 28.4 °F 43% 30.12 in 10.0 mi North 11.5 mph 16.1 mph N/A   Clear
10:15 AM 51.8 °F - 28.4 °F 41% 30.12 in 10.0 mi North 9.2 mph - N/A   Clear
10:35 AM 51.8 °F - 24.8 °F 35% 30.12 in 10.0 mi NNW 13.8 mph 20.7 mph N/A   Clear
10:55 AM 53.6 °F - 26.6 °F 35% 30.12 in 10.0 mi NW 13.8 mph 19.6 mph N/A   Clear
11:15 AM 53.6 °F - 26.6 °F 35% 30.12 in 10.0 mi NW 8.1 mph 18.4 mph N/A   Scattered Clouds
11:35 AM 53.6 °F - 23.0 °F 30% 30.10 in 10.0 mi North 12.7 mph - N/A   Clear
11:55 AM 53.6 °F - 23.0 °F 30% 30.10 in 10.0 mi NNW 9.2 mph 18.4 mph N/A   Clear
12:15 PM 55.4 °F - 23.0 °F 29% 30.09 in 10.0 mi NNW 10.4 mph 17.3 mph N/A   Clear
12:35 PM 55.4 °F - 23.0 °F 29% 30.08 in 10.0 mi NNW 13.8 mph 20.7 mph N/A   Clear
12:55 PM 55.4 °F - 21.2 °F 26% 30.07 in 10.0 mi NNW 13.8 mph 19.6 mph N/A   Clear
1:15 PM 59.0 °F - 21.2 °F 23% 30.06 in 10.0 mi WNW 12.7 mph 23.0 mph N/A   Clear
1:35 PM 59.0 °F - 21.2 °F 23% 30.04 in 10.0 mi NNW 15.0 mph 19.6 mph N/A   Clear
1:55 PM 59.0 °F - 19.4 °F 22% 30.03 in 10.0 mi NNW 12.7 mph 19.6 mph N/A   Clear
2:15 PM 59.0 °F - 21.2 °F 23% 30.02 in 10.0 mi North 6.9 mph 20.7 mph N/A   Clear
2:35 PM 60.8 °F - 21.2 °F 22% 30.02 in 10.0 mi NW 12.7 mph 20.7 mph N/A   Clear
2:55 PM 60.8 °F - 23.0 °F 23% 30.01 in 10.0 mi NW 15.0 mph 19.6 mph N/A   Clear
3:15 PM 60.8 °F - 21.2 °F 22% 30.01 in 10.0 mi NW 10.4 mph 17.3 mph N/A   Clear
3:35 PM 60.8 °F - 21.2 °F 22% 30.00 in 10.0 mi WNW 12.7 mph 17.3 mph N/A   Clear
3:55 PM 60.8 °F - 21.2 °F 22% 29.99 in 10.0 mi NW 13.8 mph 19.6 mph N/A   Clear
4:15 PM 60.8 °F - 21.2 °F 22% 29.99 in 10.0 mi WNW 10.4 mph 21.9 mph N/A   Clear
4:35 PM 60.8 °F - 19.4 °F 20% 29.98 in 10.0 mi NW 18.4 mph 21.9 mph N/A   Clear
4:55 PM 60.8 °F - 19.4 °F 20% 29.98 in 10.0 mi WNW 12.7 mph 19.6 mph N/A   Clear
5:15 PM 60.8 °F - 17.6 °F 19% 29.98 in 10.0 mi NW 11.5 mph 18.4 mph N/A   Clear
5:35 PM 60.8 °F - 17.6 °F 19% 29.98 in 10.0 mi NW 10.4 mph 17.3 mph N/A   Clear
5:55 PM 60.8 °F - 19.4 °F 20% 29.99 in 10.0 mi NW 13.8 mph - N/A   Clear
6:15 PM 59.0 °F - 19.4 °F 22% 29.99 in 10.0 mi NW 10.4 mph - N/A   Clear
6:35 PM 59.0 °F - 19.4 °F 22% 29.99 in 10.0 mi NW 11.5 mph 17.3 mph N/A   Clear
6:55 PM 57.2 °F - 19.4 °F 23% 30.00 in 10.0 mi NW 9.2 mph - N/A   Clear
7:15 PM 53.6 °F - 21.2 °F 28% 30.00 in 10.0 mi WNW 6.9 mph - N/A   Clear
7:35 PM 51.8 °F - 24.8 °F 35% 30.01 in 10.0 mi WNW 5.8 mph - N/A   Clear
7:55 PM 50.0 °F - 28.4 °F 43% 30.02 in 10.0 mi NW 3.5 mph - N/A   Clear
8:15 PM 48.2 °F - 28.4 °F 46% 30.03 in 10.0 mi WNW 4.6 mph - N/A   Clear
8:35 PM 50.0 °F - 28.4 °F 43% 30.05 in 10.0 mi NW 3.5 mph - N/A   Clear
8:55 PM 46.4 °F 45.2 °F 30.2 °F 53% 30.05 in 10.0 mi NW 3.5 mph - N/A   Clear
9:15 PM 46.4 °F - 30.2 °F 53% 30.06 in 10.0 mi Calm Calm - N/A   Clear
9:35 PM 46.4 °F 45.2 °F 28.4 °F 50% 30.07 in 10.0 mi NW 3.5 mph - N/A   Clear
9:55 PM 44.6 °F 43.1 °F 30.2 °F 57% 30.08 in 10.0 mi NNW 3.5 mph - N/A   Clear
10:15 PM 42.8 °F 40.1 °F 32.0 °F 66% 30.08 in 10.0 mi NW 4.6 mph - N/A   Clear
10:35 PM 44.6 °F 43.1 °F 32.0 °F 61% 30.09 in 10.0 mi NW 3.5 mph - N/A   Clear
10:55 PM 41.0 °F 39.0 °F 32.0 °F 70% 30.09 in 10.0 mi NW 3.5 mph - N/A   Clear
11:35 PM 41.0 °F - 32.0 °F 70% 30.09 in 10.0 mi Calm Calm - N/A   Clear
11:55 PM 41.0 °F - 32.0 °F 70% 30.10 in 10.0 mi Calm Calm - N/A   Clear